Time,TemperatureF,DewpointF,PressureIn,WindDirection,WindDirectionDegrees,WindSpeedMPH,WindSpeedGustMPH,Humidity,HourlyPrecipIn,Conditions,Clouds,dailyrainin,SoftwareType,DateUTC
2013-05-16 00:10:00,51.9,47.5,29.95,WSW,252,0.0,0.0,85,0.00,,,0.00,VWS V12.07,2013-05-16 04:10:00,
2013-05-16 00:28:00,51.7,47.0,29.94,WSW,252,0.0,0.0,84,0.00,,,0.00,VWS V12.07,2013-05-16 04:28:00,
2013-05-16 00:40:00,51.9,47.5,29.94,WSW,252,0.0,0.0,85,0.00,,,0.00,VWS V12.07,2013-05-16 04:40:00,
2013-05-16 00:58:00,52.0,47.6,29.93,WSW,252,0.0,3.0,85,0.00,,,0.00,VWS V12.07,2013-05-16 04:58:00,
2013-05-16 01:10:00,59.6,49.0,29.92,WNW,294,2.0,11.0,68,0.00,,,0.00,VWS V12.07,2013-05-16 05:10:00,
2013-05-16 01:28:00,60.7,49.3,29.90,WNW,293,0.0,7.0,66,0.00,,,0.00,VWS V12.07,2013-05-16 05:28:00,
2013-05-16 01:40:00,61.8,48.7,29.89,WNW,302,3.0,9.0,62,0.00,,,0.00,VWS V12.07,2013-05-16 05:40:00,
2013-05-16 01:58:00,62.7,48.2,29.88,WNW,286,1.0,10.0,59,0.00,,,0.00,VWS V12.07,2013-05-16 05:58:00,
2013-05-16 02:10:00,63.9,47.9,29.86,West,275,6.0,11.0,56,0.00,,,0.00,VWS V12.07,2013-05-16 06:10:00,
2013-05-16 02:28:00,64.0,47.0,29.86,WNW,288,8.0,16.0,54,0.00,,,0.00,VWS V12.07,2013-05-16 06:28:00,
2013-05-16 02:40:00,63.4,46.0,29.86,NW,306,2.0,9.0,53,0.00,,,0.00,VWS V12.07,2013-05-16 06:40:00,
2013-05-16 02:58:00,63.4,46.0,29.86,West,263,3.0,11.0,53,0.00,,,0.00,VWS V12.07,2013-05-16 06:58:00,
2013-05-16 03:10:00,63.5,45.6,29.86,NW,323,13.0,17.0,52,0.00,,,0.00,VWS V12.07,2013-05-16 07:10:00,
2013-05-16 03:28:00,63.5,44.5,29.86,WNW,289,5.0,18.0,50,0.00,,,0.00,VWS V12.07,2013-05-16 07:28:00,
2013-05-16 03:40:00,62.7,43.8,29.86,NNW,343,8.0,13.0,50,0.00,,,0.00,VWS V12.07,2013-05-16 07:40:00,
2013-05-16 03:58:00,62.3,43.4,29.86,WNW,302,4.0,12.0,50,0.00,,,0.00,VWS V12.07,2013-05-16 07:58:00,
2013-05-16 04:10:00,62.0,43.7,29.87,WNW,286,1.0,10.0,51,0.00,,,0.00,VWS V12.07,2013-05-16 08:10:00,
2013-05-16 04:28:00,62.1,42.7,29.87,NW,306,0.0,12.0,49,0.00,,,0.00,VWS V12.07,2013-05-16 08:28:00,
2013-05-16 04:40:00,62.0,43.2,29.87,SSW,202,2.0,9.0,50,0.00,,,0.00,VWS V12.07,2013-05-16 08:40:00,
2013-05-16 04:58:00,62.0,43.7,29.87,West,261,6.0,8.0,51,0.00,,,0.00,VWS V12.07,2013-05-16 08:58:00,
2013-05-16 05:10:00,61.8,43.5,29.87,West,273,9.0,12.0,51,0.00,,,0.00,VWS V12.07,2013-05-16 09:10:00,
2013-05-16 05:28:00,62.3,44.0,29.87,WNW,296,3.0,15.0,51,0.00,,,0.00,VWS V12.07,2013-05-16 09:28:00,
2013-05-16 05:40:00,62.0,45.2,29.87,West,263,11.0,16.0,54,0.00,,,0.00,VWS V12.07,2013-05-16 09:40:00,
2013-05-16 05:58:00,61.5,45.2,29.86,WNW,290,11.0,14.0,55,0.00,,,0.00,VWS V12.07,2013-05-16 09:58:00,
2013-05-16 06:10:00,61.5,45.2,29.86,West,280,8.0,14.0,55,0.00,,,0.00,VWS V12.07,2013-05-16 10:10:00,
2013-05-16 06:28:00,61.3,45.5,29.87,WNW,290,8.0,13.0,56,0.00,,,0.00,VWS V12.07,2013-05-16 10:28:00,
2013-05-16 06:40:00,61.3,46.4,29.87,WNW,290,7.0,16.0,58,0.00,,,0.00,VWS V12.07,2013-05-16 10:40:00,
2013-05-16 06:58:00,61.3,46.4,29.88,WNW,295,5.0,16.0,58,0.00,,,0.00,VWS V12.07,2013-05-16 10:58:00,
2013-05-16 07:10:00,61.3,46.4,29.89,WNW,303,5.0,10.0,58,0.00,,,0.00,VWS V12.07,2013-05-16 11:10:00,
2013-05-16 07:28:00,61.3,46.4,29.91,WNW,291,5.0,9.0,58,0.00,,,0.00,VWS V12.07,2013-05-16 11:28:00,
2013-05-16 07:40:00,61.6,45.8,29.90,WNW,298,4.0,12.0,56,0.00,,,0.00,VWS V12.07,2013-05-16 11:40:00,
2013-05-16 07:58:00,61.6,46.2,29.91,NW,309,1.0,13.0,57,0.00,,,0.00,VWS V12.07,2013-05-16 11:58:00,
2013-05-16 08:10:00,62.9,46.5,29.92,North,11,11.0,11.0,55,0.00,,,0.00,VWS V12.07,2013-05-16 12:10:00,
2013-05-16 08:28:00,63.7,47.2,29.93,West,270,8.0,13.0,55,0.00,,,0.00,VWS V12.07,2013-05-16 12:28:00,
2013-05-16 08:40:00,64.5,47.5,29.93,WNW,285,11.0,12.0,54,0.00,,,0.00,VWS V12.07,2013-05-16 12:40:00,
2013-05-16 08:58:00,64.5,48.0,29.93,WNW,283,4.0,13.0,55,0.00,,,0.00,VWS V12.07,2013-05-16 12:58:00,
2013-05-16 09:10:00,64.7,48.2,29.93,WNW,300,5.0,16.0,55,0.00,,,0.00,VWS V12.07,2013-05-16 13:10:00,
2013-05-16 09:28:00,64.7,47.2,29.96,NW,309,8.0,13.0,53,0.00,,,0.00,VWS V12.07,2013-05-16 13:28:00,
2013-05-16 09:40:00,65.0,46.5,29.97,West,262,0.0,12.0,51,0.00,,,0.00,VWS V12.07,2013-05-16 13:40:00,
2013-05-16 09:58:00,65.0,48.5,29.97,WNW,290,3.0,15.0,55,0.00,,,0.00,VWS V12.07,2013-05-16 13:58:00,
2013-05-16 10:10:00,66.0,48.4,29.97,West,267,6.0,13.0,53,0.00,,,0.00,VWS V12.07,2013-05-16 14:10:00,
2013-05-16 10:28:00,66.1,48.5,29.98,WNW,290,5.0,15.0,53,0.00,,,0.00,VWS V12.07,2013-05-16 14:28:00,
2013-05-16 10:40:00,66.3,48.2,29.98,WNW,290,15.0,18.0,52,0.00,,,0.00,VWS V12.07,2013-05-16 14:40:00,
2013-05-16 10:58:00,66.4,47.7,29.98,WNW,294,9.0,22.0,51,0.00,,,0.00,VWS V12.07,2013-05-16 14:58:00,
2013-05-16 11:10:00,67.6,49.4,29.98,WNW,286,3.0,13.0,52,0.00,,,0.00,VWS V12.07,2013-05-16 15:10:00,
2013-05-16 11:28:00,67.4,48.7,29.99,WSW,257,11.0,18.0,51,0.00,,,0.00,VWS V12.07,2013-05-16 15:28:00,
2013-05-16 11:40:00,67.3,49.1,30.00,West,264,1.0,22.0,52,0.00,,,0.00,VWS V12.07,2013-05-16 15:40:00,
2013-05-16 11:58:00,67.9,48.6,29.99,WNW,285,4.0,14.0,50,0.00,,,0.00,VWS V12.07,2013-05-16 15:58:00,
2013-05-16 12:10:00,67.9,49.1,29.99,West,269,4.0,15.0,51,0.00,,,0.00,VWS V12.07,2013-05-16 16:10:00,
2013-05-16 12:28:00,68.1,48.2,29.98,West,277,11.0,16.0,49,0.00,,,0.00,VWS V12.07,2013-05-16 16:28:00,
2013-05-16 12:40:00,68.4,48.0,29.98,West,263,3.0,14.0,48,0.00,,,0.00,VWS V12.07,2013-05-16 16:40:00,
2013-05-16 12:58:00,68.4,46.8,29.97,WSW,256,3.0,13.0,46,0.00,,,0.00,VWS V12.07,2013-05-16 16:58:00,
2013-05-16 13:10:00,69.1,45.1,29.97,West,276,5.0,15.0,42,0.00,,,0.00,VWS V12.07,2013-05-16 17:10:00,
2013-05-16 13:28:00,68.9,45.5,29.94,WNW,283,10.0,16.0,43,0.00,,,0.00,VWS V12.07,2013-05-16 17:28:00,
2013-05-16 13:40:00,69.3,45.9,29.94,West,276,6.0,18.0,43,0.00,,,0.00,VWS V12.07,2013-05-16 17:40:00,
2013-05-16 13:58:00,70.3,47.4,29.92,West,279,7.0,15.0,44,0.00,,,0.00,VWS V12.07,2013-05-16 17:58:00,
2013-05-16 14:10:00,70.3,46.8,29.92,West,262,6.0,17.0,43,0.00,,,0.00,VWS V12.07,2013-05-16 18:10:00,
2013-05-16 14:28:00,70.1,47.8,29.92,WSW,257,6.0,15.0,45,0.00,,,0.00,VWS V12.07,2013-05-16 18:28:00,
2013-05-16 14:40:00,69.3,47.7,29.92,WNW,284,4.0,14.0,46,0.00,,,0.00,VWS V12.07,2013-05-16 18:40:00,
2013-05-16 14:58:00,69.3,47.1,29.93,WNW,302,4.0,12.0,45,0.00,,,0.00,VWS V12.07,2013-05-16 18:58:00,
2013-05-16 15:10:00,69.3,47.1,29.93,West,260,5.0,11.0,45,0.00,,,0.00,VWS V12.07,2013-05-16 19:10:00,
2013-05-16 15:28:00,69.1,46.3,29.93,West,277,4.0,12.0,44,0.00,,,0.00,VWS V12.07,2013-05-16 19:28:00,
2013-05-16 15:40:00,68.9,46.1,29.93,West,267,6.0,12.0,44,0.00,,,0.00,VWS V12.07,2013-05-16 19:40:00,
2013-05-16 15:58:00,68.6,45.2,29.93,WSW,253,5.0,12.0,43,0.00,,,0.00,VWS V12.07,2013-05-16 19:58:00,
2013-05-16 16:10:00,68.1,46.6,29.93,West,259,6.0,11.0,46,0.00,,,0.00,VWS V12.07,2013-05-16 20:10:00,
2013-05-16 16:28:00,67.9,47.5,29.93,West,269,9.0,11.0,48,0.00,,,0.00,VWS V12.07,2013-05-16 20:28:00,
2013-05-16 16:40:00,67.6,47.2,29.92,West,271,7.0,11.0,48,0.00,,,0.00,VWS V12.07,2013-05-16 20:40:00,
2013-05-16 16:58:00,67.4,46.5,29.92,West,272,1.0,9.0,47,0.00,,,0.00,VWS V12.07,2013-05-16 20:58:00,
2013-05-16 17:10:00,67.4,47.0,29.92,West,267,2.0,6.0,48,0.00,,,0.00,VWS V12.07,2013-05-16 21:10:00,
2013-05-16 17:28:00,67.3,47.0,29.92,West,271,0.0,10.0,48,0.00,,,0.00,VWS V12.07,2013-05-16 21:28:00,
2013-05-16 17:40:00,67.3,47.0,29.92,WNW,286,3.0,4.0,48,0.00,,,0.00,VWS V12.07,2013-05-16 21:40:00,
2013-05-16 17:58:00,67.1,46.8,29.92,WNW,286,0.0,5.0,48,0.00,,,0.00,VWS V12.07,2013-05-16 21:58:00,
2013-05-16 18:10:00,67.4,45.9,29.92,WNW,284,3.0,5.0,46,0.00,,,0.00,VWS V12.07,2013-05-16 22:10:00,
2013-05-16 18:28:00,67.8,46.9,29.91,WNW,282,3.0,5.0,47,0.00,,,0.00,VWS V12.07,2013-05-16 22:28:00,
2013-05-16 18:40:00,68.9,44.9,29.91,West,279,1.0,11.0,42,0.00,,,0.00,VWS V12.07,2013-05-16 22:40:00,
2013-05-16 18:58:00,69.8,43.8,29.91,WNW,296,3.0,6.0,39,0.00,,,0.00,VWS V12.07,2013-05-16 22:58:00,
2013-05-16 19:10:00,69.4,44.1,29.90,West,265,5.0,11.0,40,0.00,,,0.00,VWS V12.07,2013-05-16 23:10:00,
2013-05-16 19:28:00,68.9,45.5,29.91,West,280,1.0,7.0,43,0.00,,,0.00,VWS V12.07,2013-05-16 23:28:00,
2013-05-16 19:40:00,68.1,46.6,29.91,West,281,0.0,5.0,46,0.00,,,0.00,VWS V12.07,2013-05-16 23:40:00,
2013-05-16 19:58:00,67.8,46.3,29.91,WNW,290,1.0,6.0,46,0.00,,,0.00,VWS V12.07,2013-05-16 23:58:00,
2013-05-16 20:10:00,66.8,47.0,29.92,NW,319,2.0,6.0,49,0.00,,,0.00,VWS V12.07,2013-05-17 00:10:00,
2013-05-16 20:28:00,66.3,42.5,29.92,NW,306,0.0,11.0,42,0.00,,,0.00,VWS V12.07,2013-05-17 00:28:00,
2013-05-16 20:40:00,65.0,41.4,29.93,NW,317,2.0,6.0,42,0.00,,,0.00,VWS V12.07,2013-05-17 00:40:00,
2013-05-16 20:58:00,64.5,40.9,29.93,NW,315,0.0,4.0,42,0.00,,,0.00,VWS V12.07,2013-05-17 00:58:00,
2013-05-16 21:10:00,63.1,42.0,29.95,NW,315,0.0,0.0,46,0.00,,,0.00,VWS V12.07,2013-05-17 01:10:00,
2013-05-16 21:28:00,61.3,43.5,29.95,NW,315,0.0,0.0,52,0.00,,,0.00,VWS V12.07,2013-05-17 01:28:00,
2013-05-16 21:40:00,58.4,45.5,29.96,NW,315,0.0,0.0,62,0.00,,,0.00,VWS V12.07,2013-05-17 01:40:00,
2013-05-16 21:58:00,56.9,44.9,29.97,NW,315,0.0,0.0,64,0.00,,,0.00,VWS V12.07,2013-05-17 01:58:00,
2013-05-16 22:10:00,54.8,46.7,29.99,NW,315,0.0,0.0,74,0.00,,,0.00,VWS V12.07,2013-05-17 02:10:00,
2013-05-16 22:28:00,53.5,44.0,30.00,NW,315,0.0,0.0,70,0.00,,,0.00,VWS V12.07,2013-05-17 02:28:00,
2013-05-16 22:40:00,52.2,45.2,30.00,NW,315,0.0,0.0,77,0.00,,,0.00,VWS V12.07,2013-05-17 02:40:00,
2013-05-16 22:58:00,51.3,43.7,30.01,NW,315,0.0,0.0,75,0.00,,,0.00,VWS V12.07,2013-05-17 02:58:00,
2013-05-16 23:10:00,50.4,44.8,30.02,NW,315,0.0,0.0,81,0.00,,,0.00,VWS V12.07,2013-05-17 03:10:00,
2013-05-16 23:28:00,49.8,43.9,30.01,NW,315,0.0,0.0,80,0.00,,,0.00,VWS V12.07,2013-05-17 03:28:00,
2013-05-16 23:40:00,49.1,43.5,30.02,NW,315,0.0,0.0,81,0.00,,,0.00,VWS V12.07,2013-05-17 03:40:00,
2013-05-16 23:58:00,48.6,43.4,30.02,NW,315,0.0,0.0,82,0.00,,,0.00,VWS V12.07,2013-05-17 03:58:00,